Weather History for Ruston, LA

Change the Weather History Date:

Monday, October 29, 2012

  Actual Average Record
Temperature  
Mean Temperature 47 °F -  
Max Temperature 61 °F 72 °F 86 °F (1944)
Min Temperature 33 °F 49 °F 31 °F (1952)
Degree Days  
Heating Degree Days 18    
Moisture  
Dew Point 35 °F    
Average Humidity 73    
Maximum Humidity 100    
Minimum Humidity 29    
Precipitation  
Precipitation 0.00 in - - ()
Sea Level Pressure  
Sea Level Pressure 30.26 in    
Wind  
Wind Speed 2 mph (NNE)    
Max Wind Speed 12 mph    
Max Gust Speed 18 mph    
Visibility 10 miles    
Events      
Averages and records for this station are not official NWS values.
T = Trace of Precipitation, MM = Missing Value Source: NWS Daily Summary

Daily Weather History Graph

Daily Weather History Graph

Search for Another Location

Airport:

Trip Planner

Search our weather history database for the weather conditions in past years. The results will help you decide how hot, cold, wet, or windy it might be!

Date:

Astronomy

Oct. 29, 2012 Rise Set
Actual Time 7:25 AM CDT 6:21 PM CDT
Civil Twilight 7:00 AM CDT 6:47 PM CDT
Nautical Twilight 6:31 AM CDT 7:16 PM CDT
Astronomical Twilight 6:02 AM CDT 7:44 PM CDT
Moon 6:16 PM CDT 7:14 AM CDT
Length of Visible Light 11h 46m
Length of Day
10h 56m
Full, 100% of the Moon is Illuminated
Oct 29
Full
Oct 29
Full
Nov 6
Last Quarter
Nov 13
New
Nov 20
First Quarter

Hourly Weather History & Observations

Time (CDT) Temp. Windchill Dew Point Humidity Pressure Visibility Wind Dir Wind Speed Gust Speed Precip Events Conditions
12:15 AM 37.0 °F - 37.0 °F 100% 30.25 in 10.0 mi Calm Calm - N/A   Clear
12:35 AM 36.5 °F - 36.5 °F 100% 30.26 in 10.0 mi Calm Calm - N/A   Clear
12:55 AM 36.1 °F - 36.1 °F 100% 30.25 in 10.0 mi Calm Calm - N/A   Clear
1:15 AM 36.5 °F - 36.5 °F 100% 30.25 in 10.0 mi Calm Calm - N/A   Clear
1:35 AM 35.6 °F - 35.6 °F 100% 30.26 in 10.0 mi Calm Calm - N/A   Clear
1:55 AM 36.1 °F - 36.1 °F 100% 30.26 in 10.0 mi Calm Calm - N/A   Clear
2:15 AM 35.6 °F - 35.6 °F 100% 30.25 in 10.0 mi Calm Calm - N/A   Clear
2:35 AM 35.6 °F - 35.6 °F 100% 30.25 in 10.0 mi Calm Calm - N/A   Clear
2:55 AM 35.6 °F - 35.6 °F 100% 30.25 in 10.0 mi Calm Calm - N/A   Clear
3:15 AM 35.8 °F - 35.8 °F 100% 30.25 in 10.0 mi Calm Calm - N/A   Clear
3:35 AM 34.9 °F - 34.9 °F 100% 30.25 in 10.0 mi Calm Calm - N/A   Clear
3:55 AM 35.1 °F - 35.1 °F 100% 30.26 in 10.0 mi Calm Calm - N/A   Clear
4:15 AM 35.2 °F - 35.2 °F 100% 30.26 in 10.0 mi Calm Calm - N/A   Clear
4:35 AM 35.6 °F - 35.6 °F 100% 30.26 in 10.0 mi Calm Calm - N/A   Clear
4:55 AM 35.4 °F - 35.4 °F 100% 30.26 in 10.0 mi Calm Calm - N/A   Clear
5:15 AM 38.5 °F 36.1 °F 35.1 °F 87% 30.27 in 10.0 mi NNE 3.5 mph - N/A   Clear
6:15 AM 36.7 °F - 33.4 °F 88% 30.29 in 10.0 mi Calm Calm - N/A   Clear
6:35 AM 35.1 °F - 35.1 °F 100% 30.29 in 10.0 mi Calm Calm - N/A   Clear
6:55 AM 34.7 °F - 34.7 °F 100% 30.29 in 10.0 mi Calm Calm - N/A   Clear
7:15 AM 34.2 °F - 34.2 °F 100% 30.30 in 10.0 mi Calm Calm - N/A   Clear
7:35 AM 33.8 °F - 33.8 °F 100% 30.30 in 10.0 mi Calm Calm - N/A   Clear
7:55 AM 34.2 °F - 34.2 °F 100% 30.30 in 10.0 mi Calm Calm - N/A   Clear
8:15 AM 36.3 °F - 36.3 °F 100% 30.31 in 10.0 mi Calm Calm - N/A   Clear
8:35 AM 38.8 °F - 37.6 °F 95% 30.32 in 10.0 mi Calm Calm - N/A   Clear
8:55 AM 41.4 °F - 37.6 °F 86% 30.32 in 10.0 mi Calm Calm - N/A   Clear
9:15 AM 44.4 °F 42.0 °F 37.6 °F 77% 30.33 in 10.0 mi North 4.6 mph - N/A   Clear
9:35 AM 46.6 °F - 36.1 °F 67% 30.33 in 10.0 mi NNE 6.9 mph - N/A   Clear
9:55 AM 48.4 °F - 35.2 °F 60% 30.33 in 10.0 mi NE 9.2 mph - N/A   Clear
10:35 AM 51.4 °F - 34.9 °F 53% 30.34 in 10.0 mi North 10.4 mph - N/A   Clear
10:55 AM 52.2 °F - 33.8 °F 50% 30.34 in 10.0 mi NNE 9.2 mph - N/A   Clear
11:15 AM 53.4 °F - 32.2 °F 44% 30.34 in 10.0 mi NE 8.1 mph - N/A   Clear
11:35 AM 54.5 °F - 32.0 °F 42% 30.33 in 10.0 mi North 8.1 mph 17.3 mph N/A   Clear
11:55 AM 55.2 °F - 31.8 °F 41% 30.32 in 10.0 mi North 10.4 mph - N/A   Clear
12:35 PM 57.6 °F - 31.5 °F 37% 30.31 in 10.0 mi NE 11.5 mph - N/A   Clear
12:55 PM 57.7 °F - 31.8 °F 37% 30.30 in 10.0 mi North 8.1 mph - N/A   Clear
1:15 PM 58.6 °F - 31.3 °F 36% 30.29 in 10.0 mi North 10.4 mph 18.4 mph N/A   Clear
1:35 PM 59.0 °F - 30.6 °F 34% 30.28 in 10.0 mi North 9.2 mph - N/A   Clear
1:55 PM 59.4 °F - 29.8 °F 33% 30.26 in 10.0 mi North 11.5 mph 16.1 mph N/A   Clear
2:15 PM 60.8 °F - 30.7 °F 32% 30.25 in 10.0 mi NNE 10.4 mph - N/A   Clear
2:35 PM 60.3 °F - 30.6 °F 33% 30.24 in 10.0 mi North 5.8 mph - N/A   Clear
2:55 PM 60.8 °F - 28.8 °F 30% 30.23 in 10.0 mi NNW 9.2 mph - N/A   Clear
3:15 PM 61.2 °F - 28.4 °F 29% 30.22 in 10.0 mi NNE 10.4 mph - N/A   Clear
3:35 PM 61.7 °F - 29.5 °F 30% 30.22 in 10.0 mi North 9.2 mph - N/A   Clear
3:55 PM 61.0 °F - 29.3 °F 30% 30.21 in 10.0 mi North 10.4 mph - N/A   Clear
4:15 PM 61.7 °F - 29.7 °F 30% 30.21 in 10.0 mi North 8.1 mph - N/A   Clear
4:35 PM 61.2 °F - 30.7 °F 32% 30.21 in 10.0 mi NNE 6.9 mph - N/A   Clear
4:55 PM 60.4 °F - 30.9 °F 33% 30.20 in 10.0 mi North 5.8 mph - N/A   Clear
5:15 PM 60.1 °F - 31.3 °F 34% 30.20 in 10.0 mi NNE 6.9 mph - N/A   Clear
5:35 PM 58.6 °F - 33.3 °F 38% 30.20 in 10.0 mi North 4.6 mph - N/A   Clear
5:55 PM 55.8 °F - 38.5 °F 52% 30.20 in 10.0 mi Calm Calm - N/A   Clear
6:15 PM 50.5 °F - 41.9 °F 72% 30.20 in 10.0 mi Calm Calm - N/A   Clear
6:35 PM 48.6 °F - 42.3 °F 79% 30.20 in 10.0 mi Calm Calm - N/A   Clear
6:55 PM 48.0 °F - 42.3 °F 80% 30.20 in 10.0 mi Calm Calm - N/A   Clear
7:15 PM 45.5 °F - 42.4 °F 89% 30.20 in 10.0 mi Calm Calm - N/A   Clear
7:35 PM 44.6 °F - 41.9 °F 90% 30.20 in 10.0 mi Calm Calm - N/A   Clear
10:35 PM 38.8 °F - 38.8 °F 100% 30.20 in 10.0 mi Calm Calm - N/A   Clear
10:55 PM 38.3 °F - 38.3 °F 100% 30.20 in 10.0 mi Calm Calm - N/A   Clear
11:15 PM 38.3 °F - 38.3 °F 100% 30.19 in 10.0 mi Calm Calm - N/A   Clear
11:35 PM 37.9 °F - 37.9 °F 100% 30.19 in 10.0 mi Calm Calm - N/A   Clear
11:55 PM 37.4 °F - 37.4 °F 100% 30.18 in 10.0 mi Calm Calm - N/A   Clear